Location: Malvern Link
(52.1333°N, 2.3000°W)
Time: 02:12:42
(UTC+00:00)

CUTE 1.7 + AOD 2 - Pass Details

Date: 27 June 2022
Orbit: 589 x 608 km, 97.7° (Epoch: 07 August)

Event Time Altitude Azimuth Distance (km) Brightness Sun altitude
Rises 02:57:57 0° 27° (NNE) 2,863 ? -6.3°
Reaches altitude 10° 03:00:48 10° 47° (NE) 1,950 ? -6.0°
Maximum altitude 03:03:37 17° 89° (E) 1,529 ? -5.8°
Drops below altitude 10° 03:06:23 10° 131° (SE) 1,930 ? -5.5°
Sets 03:09:12 0° 151° (SSE) 2,822 ? -5.2°
